Tracking 33744 objects as of 13-Apr-2026
HD Live streaming from Space Station
objects crossing your sky now

STARLINK-36861

Track STARLINK-36861 now!
10-day predictions
STARLINK-36861 is classified as:


NORAD ID: 67934
Int'l Code: 2026-037C
Perigee: 486.6 km
Apogee: 488.8 km
Inclination: 43.0 °
Period: 94.2 minutes
Semi major axis: 6858 km
RCS: Unknown
Launch date: February 24, 2026
Source: United States (US)
Launch site: AIR FORCE EASTERN TEST RANGE (AFETR)
Your satellite tracking list
Your tracking list is empty




NASA's NSSDC Master Catalog

Two Line Element Set (TLE):
1 67934U 26037C   26102.74427950  .00014977  00000-0  53884-3 0  9995
2 67934  43.0006 358.8635 0001564 275.2600  84.8074 15.28413118  8542
Source of the keplerian elements: AFSPC